{"data":{"norad_id":67294,"intl_designator":"2025-313AY","name":"SITRO-AIS-63","alt_names":[],"object_type":"PAYLOAD","status":"ACTIVE","operator":null,"country":"CIS","launch_date":"2025-12-28","launch_site_code":"VOSTO","launch_vehicle":null,"mission":null,"orbit_class":"UNKNOWN","rcs_meters":null,"size_class":null,"mass_kg":null,"dimensions":null,"purposes":[],"wikipedia_slug":null,"has_3d_model":false,"image_url":null,"decayed_at":null,"tle_current":{"epoch":"2026-05-24T15:37:42.320064Z","epoch_age_seconds":108351,"freshness":"FRESH","line1":"1 67294U 25313AY  26144.65118426  .00008466  00000+0  34629-3 0  9992","line2":"2 67294  97.3945 220.0326 0010457  83.2835 276.9592 15.24536416 22391","mean_motion":15.24536416,"eccentricity":0.0010457,"inclination_deg":97.3945,"raan_deg":220.0326,"arg_perigee_deg":83.2835,"mean_anomaly_deg":276.9592,"bstar":0.00034629,"rev_number":2239,"period_min":94.454942819811,"perigee_km":484.99355183576,"apogee_km":499.36212829227,"semimajor_km":6870.314840064,"source":"CELESTRAK","updated_at":"2026-05-25T13:38:06.882694Z"}}}